Regional Weather Roundup
Issued by NWS

Home | Current Version | Previous Version | Text Only | Print | Product List | Glossary Off
Versions: 1 2 3 4 5 6 7 8 9 10 11 12 13 14 15 16 17 18 19 20 21 22 23 24 25 26 27 28 29 30 31 32 33 34 35 36 37 38 39 40 41 42 43 44 45 46 47 48 49 50

000
ASUS43 KTOP 311808
RWRKS

WEATHER ROUNDUP FOR KANSAS
NATIONAL WEATHER SERVICE GOODLAND KS
100 PM CDT THU JUL 31 2014

NOTE:  "FAIR" INDICATES FEW OR NO CLOUDS BELOW 12,000 FEET WITH NO
SIGNIFICANT WEATHER AND/OR OBSTRUCTIONS TO VISIBILITY.

KSZ001>006-013>018-027>032-041>047-311900-
NORTHWEST KANSAS

CITY           SKY/WX    TMP DP  RH WIND       PRES   REMARKS
GOODLAND       PTSUNNY   78  51  38 W12       30.22F
6HR MIN TEMP:  54; 6HR MAX TEMP:  78;

HAYS           SUNNY     81  55  41 N5        30.15S
HILL CITY      MOSUNNY   86  51  29 VRB5      30.14F
6HR MIN TEMP:  56; 6HR MAX TEMP:  86;

RUSSELL        SUNNY     82  55  39 VRB5      30.13F
6HR MIN TEMP:  56; 6HR MAX TEMP:  82;

$$

KSZ061>065-074>080-084>089-311900-
SOUTHWEST KANSAS

CITY           SKY/WX    TMP DP  RH WIND       PRES   REMARKS
DODGE CITY     SUNNY     78  53  41 E9        30.18
6HR MIN TEMP:  58; 6HR MAX TEMP:  79;

ELKHART          N/A     71  55  56 NE2         N/A
GARDEN CITY    MOSUNNY   76  53  44 VRB3      30.20S
6HR MIN TEMP:  57; 6HR MAX TEMP:  78;

GREAT BEND       N/A     77  55  47 SE3       30.15R
PRATT          SUNNY     77  50  38 CALM      30.18S
$$

KSZ066>073-081>083-090>101-311900-
SOUTHEAST KANSAS

CITY           SKY/WX    TMP DP  RH WIND       PRES   REMARKS
CHANUTE        CLOUDY    80  59  48 NE5       30.11
6HR MIN TEMP:  59; 6HR MAX TEMP:  80;

COFFEYVILLE    CLOUDY    77  64  64 E6        30.10
6HR MIN TEMP:  66; 6HR MAX TEMP:  77;

HUTCHINSON     SUNNY     79  56  45 N5        30.14F
6HR MIN TEMP:  55; 6HR MAX TEMP:  80;

MEDICINE LODGE   N/A     76  56  49 N5        30.16S
NEWTON         PTSUNNY   77  54  44 W3        30.17F
PARSONS        CLOUDY    78  63  59 CALM      30.12
6HR MIN TEMP:  65; 6HR MAX TEMP:  78;

WICHITA INTL   PTSUNNY   78  56  46 CALM      30.13F
6HR MIN TEMP:  60; 6HR MAX TEMP:  79;

WICHITA JABRA  PTSUNNY   79  59  50 VRB3      30.13F
6HR MIN TEMP:  57; 6HR MAX TEMP:  80;

WICHITA MCCONL MOSUNNY   79  56  45 VRB7      30.13F
WINFIELD       CLOUDY    78  61  55 VRB3      30.13F
6HR MIN TEMP:  62; 6HR MAX TEMP:  79;

$$

KSZ007>012-019>026-033>040-048>060-102>105-311900-
NORTHEAST KANSAS

CITY           SKY/WX    TMP DP  RH WIND       PRES   REMARKS
CONCORDIA      SUNNY     81  55  40 VRB5      30.11F
6HR MIN TEMP:  55; 6HR MAX TEMP:  82;

EMPORIA        SUNNY     78  53  41 N5        30.12F
6HR MIN TEMP:  58; 6HR MAX TEMP:  80;

LAWRENCE       MOSUNNY   81  56  42 CALM      30.11
6HR MIN TEMP:  55; 6HR MAX TEMP:  82;

MANHATTAN      SUNNY     80  53  39 E3        30.11
6HR MIN TEMP:  56; 6HR MAX TEMP:  81;

MARYSVILLE     MOSUNNY   81  50  34 S3        30.11F
OLATHE IND     MOSUNNY   81  54  39 VRB3      30.12F
6HR MIN TEMP:  57; 6HR MAX TEMP:  82;

OLATHE EXE     MOSUNNY   80  55  42 NE5       30.11F
6HR MIN TEMP:  62; 6HR MAX TEMP:  82;

SALINA         MOSUNNY   84  50  30 VRB7      30.13F
6HR MIN TEMP:  55; 6HR MAX TEMP:  84;

TOPEKA BILLARD MOSUNNY   82  52  35 CALM      30.11F
6HR MIN TEMP:  55; 6HR MAX TEMP:  84;

TOPEKA FORBES  MOSUNNY   81  50  33 VRB5      30.12F
6HR MIN TEMP:  57; 6HR MAX TEMP:  84;

$$


USA.gov is the U.S. government's official web portal to all federal, state and local government web resources and services.